This is the latest recevied weather packets stored in our database for station/object KE5VT. If no packets are shown the sender has not sent any weather packets the latest 10 day(s).
| Time | Temp. | Humidity | Pressure | Rain* | Wind** | Luminosity | Snow |
|---|---|---|---|---|---|---|---|
| 1778076986 | 20° C | 77% | 1011 hPa | 0 mm | - | 147 W/m² | - |
| 1778076685 | 20° C | 78% | 1011 hPa | 0 mm | - | 118 W/m² | - |
| 1778076382 | 19.44° C | 78% | 1011.1 hPa | 0 mm | - | 121 W/m² | - |
| 1778076079 | 20° C | 77% | 1010.9 hPa | 0 mm | - | 122 W/m² | - |
| 1778075776 | 20° C | 78% | 1011 hPa | 0 mm | - | 143 W/m² | - |
| 1778075472 | 19.44° C | 79% | 1010.8 hPa | 0 mm | - | 129 W/m² | - |
| 1778075168 | 18.89° C | 79% | 1010.7 hPa | 0 mm | - | 96 W/m² | - |
| 1778074864 | 18.89° C | 79% | 1010.6 hPa | 0 mm | - | 106 W/m² | - |
| 1778074562 | 18.89° C | 80% | 1010.7 hPa | 0 mm | - | 120 W/m² | - |
| 1778074258 | 18.33° C | 81% | 1011 hPa | 0 mm | - | 104 W/m² | - |
| 1778073956 | 18.33° C | 82% | 1011 hPa | 0 mm | - | 102 W/m² | - |
| 1778073653 | 18.33° C | 81% | 1010.9 hPa | 0 mm | - | 115 W/m² | - |
| 1778073350 | 18.33° C | 81% | 1010.8 hPa | 0 mm | - | 99 W/m² | - |
| 1778073046 | 17.78° C | 81% | 1010.8 hPa | 0 mm | - | 92 W/m² | - |
| 1778072743 | 17.78° C | 82% | 1010.7 hPa | 0 mm | - | 87 W/m² | - |
| 1778072441 | 17.78° C | 82% | 1010.9 hPa | 0 mm | - | 81 W/m² | - |
| 1778072139 | 17.78° C | 82% | 1010.9 hPa | 0 mm | - | 75 W/m² | - |
| 1778071836 | 17.78° C | 82% | 1011.1 hPa | 0 mm | - | 88 W/m² | - |
| 1778071534 | 17.78° C | 82% | 1011.1 hPa | 0 mm | - | 99 W/m² | - |
| 1778071232 | 17.22° C | 83% | 1011.1 hPa | 0 mm | - | 89 W/m² | - |
| 1778070929 | 17.22° C | 83% | 1011.1 hPa | 0 mm | - | 67 W/m² | - |
| 1778070627 | 16.67° C | 84% | 1011.2 hPa | 0 mm | - | 51 W/m² | - |
| 1778070324 | 16.67° C | 85% | 1011.4 hPa | 0 mm | - | 47 W/m² | - |
| 1778070022 | 16.67° C | 84% | 1011.3 hPa | 0 mm | - | 42 W/m² | - |
| 1778069719 | 16.67° C | 85% | 1011.3 hPa | 0 mm | - | 44 W/m² | - |
* Rain latest hour (hover to see other rain measurements)
** Current wind speed in m/s (hover to see current wind gust speed)